Columbia Airport, CA

4:12 PM PDT on October 13, 2019 (GMT -0700)
Columbia Airport

Weather History for KO22 - August, 2019

Change the Weather History Date:

Monday, August 26, 2019

  Actual Average (KMOD) Record (KMOD)
Temperature  
Mean Temperature 81 °F -  
Max Temperature 100 °F 89 °F 104 °F (1988)
Min Temperature 62 °F 58 °F 49 °F (1955)
Cooling Degree Days 16    
Growing Degree Days 31 (Base 50)    
Moisture  
Dew Point 51 °F    
Average Humidity 40    
Maximum Humidity 77    
Minimum Humidity 11    
Precipitation  
Precipitation 0.00 in - - ()
Sea Level Pressure  
Sea Level Pressure 29.95 in    
Wind  
Wind Speed 2 mph (SSW)    
Max Wind Speed 10 mph    
Max Gust Speed 15 mph    
Visibility 10 miles    
Events      
Averages and records for this station are not official NWS values.
T = Trace of Precipitation, MM = Missing Value Source: NWS Daily Summary

Daily Weather History Graph

Daily Weather History Graph

Search for Another Location

Airport or City:

Astronomy

Aug. 26, 2019 Rise Set
Actual Time 6:26 AM PDT 7:40 PM PDT
Civil Twilight 5:58 AM PDT 8:07 PM PDT
Nautical Twilight 5:26 AM PDT 8:39 PM PDT
Astronomical Twilight 4:52 AM PDT 9:13 PM PDT
Moon 1:59 AM PDT (8/26) 5:05 PM PDT (8/26)
Length of Visible Light 14h 08m
Length of Day
13h 13m
Waning Crescent, 18% of the Moon is Illuminated
Aug 26
Waning Crescent
Aug 30
New
Sep 5
First Quarter
Sep 13
Full
Sep 21
Last Quarter

Hourly Weather History & Observations

Time (PDT) Temp. Heat Index Dew Point Humidity Pressure Visibility Wind Dir Wind Speed Gust Speed Precip Events Conditions
12:15 AM 75.2 °F - 53.6 °F 47% 30.00 in 10.0 mi SSW 3.5 mph - N/A   Clear
12:35 AM 75.2 °F - 53.6 °F 47% 30.00 in 10.0 mi SSW 3.5 mph - N/A   Clear
1:15 AM 71.6 °F - 55.4 °F 57% 29.99 in 10.0 mi Variable 4.6 mph - N/A   Clear
1:35 AM 71.6 °F - 55.4 °F 57% 29.98 in 10.0 mi Variable 3.5 mph - N/A   Clear
1:55 AM 69.8 °F - 55.4 °F 60% 29.98 in 10.0 mi North - - N/A   Clear
2:15 AM 69.8 °F - 55.4 °F 60% 29.98 in 10.0 mi Calm Calm - N/A   Clear
2:35 AM 68.0 °F - 55.4 °F 64% 29.98 in 10.0 mi Calm Calm - N/A   Clear
2:55 AM 68.0 °F - 55.4 °F 64% 29.97 in 10.0 mi Calm Calm - N/A   Clear
3:15 AM 68.0 °F - 55.4 °F 64% 29.97 in 10.0 mi Calm Calm - N/A   Clear
3:35 AM 66.2 °F - 55.4 °F 68% 29.96 in 10.0 mi Calm Calm - N/A   Clear
3:55 AM 66.2 °F - 55.4 °F 68% 29.96 in 10.0 mi Calm Calm - N/A   Clear
4:15 AM 66.2 °F - 55.4 °F 68% 29.96 in 10.0 mi Calm Calm - N/A   Clear
4:35 AM 64.4 °F - 55.4 °F 73% 29.96 in 10.0 mi Calm Calm - N/A   Clear
4:55 AM 64.4 °F - 55.4 °F 73% 29.96 in 10.0 mi Calm Calm - N/A   Clear
5:15 AM 66.2 °F - 55.4 °F 68% 29.97 in 10.0 mi Calm Calm - N/A   Clear
5:35 AM 64.4 °F - 55.4 °F 73% 29.97 in 10.0 mi Calm Calm - N/A   Clear
5:55 AM 64.4 °F - 55.4 °F 73% 29.97 in 10.0 mi Calm Calm - N/A   Clear
6:15 AM 62.6 °F - 55.4 °F 77% 29.98 in 10.0 mi Calm Calm - N/A   Clear
6:35 AM 62.6 °F - 55.4 °F 77% 29.98 in 10.0 mi Calm Calm - N/A   Clear
6:55 AM 64.4 °F - 55.4 °F 73% 29.98 in 10.0 mi Calm Calm - N/A   Clear
7:15 AM 66.2 °F - 55.4 °F 68% 29.98 in 10.0 mi Calm Calm - N/A   Clear
7:35 AM 69.8 °F - 55.4 °F 60% 29.99 in 10.0 mi Calm Calm - N/A   Clear
7:55 AM 71.6 °F - 55.4 °F 57% 29.99 in 10.0 mi Calm Calm - N/A   Clear
8:15 AM 75.2 °F - 57.2 °F 53% 29.99 in 10.0 mi Calm Calm - N/A   Clear
8:35 AM 78.8 °F - 55.4 °F 44% 29.99 in 10.0 mi Calm Calm - N/A   Clear
8:55 AM 80.6 °F 80.5 °F 55.4 °F 42% 29.99 in 10.0 mi Calm Calm - N/A   Clear
9:15 AM 84.2 °F 82.8 °F 53.6 °F 35% 29.99 in 10.0 mi Calm Calm - N/A   Clear
9:35 AM 87.8 °F - 50.0 °F 27% 29.98 in 10.0 mi Calm Calm - N/A   Clear
9:55 AM 87.8 °F - 51.8 °F 29% 29.98 in 10.0 mi Calm Calm - N/A   Clear
10:15 AM 91.4 °F - 48.2 °F 23% 29.98 in 10.0 mi Calm Calm - N/A   Clear
10:35 AM 93.2 °F - 46.4 °F 20% 29.98 in 10.0 mi Variable 4.6 mph - N/A   Clear
10:55 AM 93.2 °F - 46.4 °F 20% 29.98 in 10.0 mi Calm Calm - N/A   Clear
11:15 AM 95.0 °F - 48.2 °F 20% 29.98 in 10.0 mi Variable 5.8 mph - N/A   Clear
11:35 AM 95.0 °F - 48.2 °F 20% 29.97 in 10.0 mi Calm Calm - N/A   Clear
11:55 AM 96.8 °F - 48.2 °F 19% 29.97 in 10.0 mi Variable 5.8 mph - N/A   Clear
12:15 PM 96.8 °F - 48.2 °F 19% 29.96 in 10.0 mi Variable 5.8 mph - N/A   Clear
12:35 PM 98.6 °F - 48.2 °F 18% 29.95 in 10.0 mi Variable 4.6 mph - N/A   Clear
12:55 PM 98.6 °F - 46.4 °F 17% 29.95 in 10.0 mi Variable 6.9 mph 13.8 mph N/A   Clear
1:15 PM 98.6 °F - 44.6 °F 16% 29.94 in 10.0 mi Variable 5.8 mph - N/A   Clear
1:35 PM 100.4 °F - 42.8 °F 14% 29.94 in 10.0 mi Variable 5.8 mph - N/A   Clear
1:55 PM 100.4 °F - 41.0 °F 13% 29.94 in 10.0 mi Variable 4.6 mph 12.7 mph N/A   Clear
2:15 PM 100.4 °F - 42.8 °F 14% 29.93 in 10.0 mi Variable 6.9 mph 12.7 mph N/A   Clear
2:35 PM 100.4 °F - 39.2 °F 12% 29.92 in 10.0 mi Variable 6.9 mph - N/A   Clear
2:55 PM 100.4 °F - 37.4 °F 11% 29.92 in 10.0 mi Variable 3.5 mph 13.8 mph N/A   Clear
3:15 PM 100.4 °F - 39.2 °F 12% 29.92 in 10.0 mi Variable 6.9 mph - N/A   Clear
3:35 PM 98.6 °F - 42.8 °F 15% 29.91 in 10.0 mi Variable 10.4 mph - N/A   Clear
3:55 PM 100.4 °F - 44.6 °F 15% 29.91 in 10.0 mi Variable 8.1 mph 15.0 mph N/A   Clear
4:15 PM 100.4 °F - 46.4 °F 16% 29.90 in 10.0 mi Variable 6.9 mph 13.8 mph N/A   Clear
4:35 PM 100.4 °F - 46.4 °F 16% 29.90 in 10.0 mi Variable 6.9 mph - N/A   Clear
4:55 PM 98.6 °F - 46.4 °F 17% 29.90 in 10.0 mi Variable 6.9 mph 13.8 mph N/A   Clear
5:15 PM 96.8 °F - 48.2 °F 19% 29.90 in 10.0 mi Variable 6.9 mph - N/A   Clear
5:35 PM 96.8 °F - 48.2 °F 19% 29.90 in 10.0 mi Variable 5.8 mph - N/A   Clear
5:55 PM 95.0 °F - 48.2 °F 20% 29.90 in 10.0 mi Variable 8.1 mph - N/A   Clear
6:15 PM 95.0 °F - 48.2 °F 20% 29.90 in 10.0 mi Variable 8.1 mph - N/A   Clear
6:35 PM 93.2 °F - 50.0 °F 23% 29.90 in 10.0 mi Variable 8.1 mph - N/A   Clear
6:55 PM 91.4 °F - 51.8 °F 26% 29.90 in 10.0 mi Calm Calm - N/A   Clear
7:15 PM 91.4 °F - 51.8 °F 26% 29.90 in 10.0 mi Variable 5.8 mph - N/A   Clear
7:35 PM 89.6 °F - 51.8 °F 27% 29.90 in 10.0 mi Variable 4.6 mph - N/A   Clear
7:55 PM 86.0 °F 84.2 °F 53.6 °F 33% 29.90 in 10.0 mi Calm Calm - N/A   Clear
8:15 PM 84.2 °F 82.8 °F 53.6 °F 35% 29.90 in 10.0 mi Calm Calm - N/A   Clear
8:55 PM 78.8 °F - 55.4 °F 44% 29.91 in 10.0 mi Calm Calm - N/A   Clear
9:15 PM 78.8 °F - 55.4 °F 44% 29.92 in 10.0 mi South 3.5 mph - N/A   Clear
9:35 PM 77.0 °F - 55.4 °F 47% 29.92 in 10.0 mi Calm Calm - N/A   Clear
9:55 PM 75.2 °F - 55.4 °F 50% 29.92 in 10.0 mi Calm Calm - N/A   Clear
10:15 PM 75.2 °F - 55.4 °F 50% 29.92 in 10.0 mi Calm Calm - N/A   Clear
10:35 PM 75.2 °F - 55.4 °F 50% 29.92 in 10.0 mi Calm Calm - N/A   Clear
10:55 PM 73.4 °F - 55.4 °F 53% 29.92 in 10.0 mi Calm Calm - N/A   Clear
11:15 PM 73.4 °F - 55.4 °F 53% 29.92 in 10.0 mi Variable 3.5 mph - N/A   Clear
11:35 PM 73.4 °F - 55.4 °F 53% 29.93 in 10.0 mi Variable 4.6 mph - N/A   Clear
11:55 PM 73.4 °F - 55.4 °F 53% 29.92 in 10.0 mi Calm Calm - N/A   Clear